This is the latest recevied weather packets stored in our database for station/object KO4LFZ. If no packets are shown the sender has not sent any weather packets the latest 10 day(s).
| Time | Temp. | Humidity | Pressure | Rain* | Wind** | Luminosity | Snow |
|---|---|---|---|---|---|---|---|
| 1778239595 | 10° C | 80% | 1015.5 hPa | 0 mm | - | 26 W/m² | - |
| 1778239292 | 10° C | 80% | 1015.4 hPa | 0 mm | - | 17 W/m² | - |
| 1778238989 | 10° C | 80% | 1015.4 hPa | 0 mm | - | 13 W/m² | - |
| 1778238686 | 10° C | 82% | 1015.4 hPa | 0 mm | - | 10 W/m² | - |
| 1778238384 | 10° C | 82% | 1015.3 hPa | 0 mm | - | 7 W/m² | - |
| 1778238079 | 10° C | 81% | 1015.3 hPa | 0 mm | - | 5 W/m² | - |
| 1778237774 | 10° C | 80% | 1015.2 hPa | 0 mm | - | 1 W/m² | - |
| 1778237472 | 10° C | 80% | 1015.4 hPa | 0 mm | - | 0 W/m² | - |
| 1778237169 | 10° C | 81% | 1015 hPa | 0 mm | - | 0 W/m² | - |
| 1778236866 | 10° C | 82% | 1015.1 hPa | 0 mm | - | 0 W/m² | - |
| 1778236563 | 10° C | 83% | 1015.2 hPa | 0 mm | - | 0 W/m² | - |
| 1778236260 | 9.44° C | 85% | 1015.3 hPa | 0 mm | - | 0 W/m² | - |
| 1778235958 | 9.44° C | 85% | 1015.3 hPa | 0 mm | - | 0 W/m² | - |
| 1778235655 | 9.44° C | 86% | 1015.3 hPa | 0 mm | - | 0 W/m² | - |
| 1778235353 | 9.44° C | 86% | 1015.3 hPa | 0 mm | - | 0 W/m² | - |
| 1778235050 | 9.44° C | 86% | 1015.3 hPa | 0 mm | - | 0 W/m² | - |
| 1778234748 | 8.89° C | 88% | 1015.4 hPa | 0 mm | - | 0 W/m² | - |
| 1778234444 | 7.78° C | 95% | 1015.2 hPa | 0 mm | - | 0 W/m² | - |
| 1778234141 | 7.22° C | 96% | 1015.3 hPa | 0 mm | - | 0 W/m² | - |
| 1778233838 | 7.22° C | 96% | 1015.3 hPa | 0 mm | - | 0 W/m² | - |
| 1778233535 | 7.22° C | 96% | 1015.1 hPa | 0 mm | - | 0 W/m² | - |
| 1778233232 | 7.22° C | 96% | 1015.4 hPa | 0 mm | - | 0 W/m² | - |
| 1778232929 | 7.22° C | 96% | 1015.1 hPa | 0 mm | - | 0 W/m² | - |
| 1778232627 | 7.22° C | 96% | 1015.2 hPa | 0 mm | - | 0 W/m² | - |
| 1778232324 | 7.22° C | 96% | 1015.2 hPa | 0 mm | - | 0 W/m² | - |
* Rain latest hour (hover to see other rain measurements)
** Current wind speed in m/s (hover to see current wind gust speed)